Radiation Dose at Monitoring Post of Fukushima Daini Nuclear Power Station
Date,Time,MP-1(microSv/h),MP-2(microSv/h),MP-3(microSv/h),MP-4(microSv/h),MP-5(microSv/h),MP-6(microSv/h),MP-7(microSv/h),Wind Direction,Wind Velocity(m/s),Rain
2018/08/03,00:00,0.332,0.208,0.339,0.327,0.298,0.166,0.101,north,2.8,No
2018/08/03,00:10,0.333,0.208,0.336,0.325,0.295,0.165,0.101,north,4.6,No
2018/08/03,00:20,0.328,0.207,0.337,0.323,0.292,0.164,0.101,north,5.3,No
2018/08/03,00:30,0.331,0.208,0.340,0.326,0.294,0.166,0.103,north,5.1,No
2018/08/03,00:40,0.333,0.208,0.336,0.327,0.297,0.164,0.101,north,6.3,No
2018/08/03,00:50,0.330,0.207,0.338,0.323,0.291,0.164,0.101,north,6.3,No
2018/08/03,01:00,0.330,0.209,0.339,0.324,0.292,0.164,0.102,north-northwest,1.5,No
2018/08/03,01:10,0.333,0.208,0.337,0.326,0.295,0.164,0.102,north,1.5,No
2018/08/03,01:20,0.331,0.205,0.335,0.324,0.293,0.164,0.101,north,4.7,No
2018/08/03,01:30,0.327,0.209,0.339,0.322,0.291,0.165,0.101,north,5.2,No
2018/08/03,01:40,0.332,0.207,0.336,0.327,0.296,0.164,0.102,north,5.5,No
2018/08/03,01:50,0.332,0.206,0.335,0.325,0.294,0.164,0.101,north,6.9,No
2018/08/03,02:00,0.328,0.208,0.339,0.323,0.290,0.165,0.102,north,5.8,No
2018/08/03,02:10,0.329,0.207,0.339,0.325,0.295,0.164,0.101,north,6.4,No
2018/08/03,02:20,0.332,0.205,0.335,0.325,0.295,0.163,0.101,north,6.8,No
2018/08/03,02:30,0.330,0.208,0.339,0.322,0.291,0.164,0.100,north,6.3,No
2018/08/03,02:40,0.326,0.207,0.340,0.326,0.294,0.165,0.101,north,6.7,No
2018/08/03,02:50,0.332,0.206,0.337,0.324,0.295,0.162,0.101,north,6.5,No
2018/08/03,03:00,0.330,0.208,0.335,0.321,0.291,0.164,0.101,north,6.7,No
2018/08/03,03:10,0.327,0.207,0.338,0.324,0.292,0.164,0.101,north,6.4,No
2018/08/03,03:20,0.331,0.205,0.336,0.324,0.295,0.163,0.102,north,7.0,No
2018/08/03,03:30,0.331,0.207,0.337,0.321,0.292,0.163,0.100,north,6.3,No
2018/08/03,03:40,0.330,0.207,0.340,0.323,0.292,0.163,0.102,north,5.2,No
2018/08/03,03:50,0.329,0.205,0.336,0.325,0.295,0.162,0.100,north,5.0,No
2018/08/03,04:00,0.332,0.206,0.334,0.321,0.293,0.163,0.100,north,5.5,No
2018/08/03,04:10,0.330,0.206,0.337,0.323,0.289,0.163,0.101,north,5.6,No
2018/08/03,04:20,0.328,0.205,0.336,0.324,0.294,0.162,0.101,north,5.8,No
2018/08/03,04:30,0.333,0.207,0.337,0.322,0.293,0.164,0.100,north,6.6,No
2018/08/03,04:40,0.330,0.206,0.339,0.322,0.290,0.163,0.101,north,7.2,No
2018/08/03,04:50,0.327,0.205,0.336,0.325,0.292,0.162,0.100,north,6.6,No
2018/08/03,05:00,0.331,0.207,0.336,0.323,0.293,0.163,0.100,north,6.5,No
2018/08/03,05:10,0.331,0.207,0.338,0.323,0.290,0.164,0.100,north,6.8,No
2018/08/03,05:20,0.329,0.206,0.337,0.323,0.292,0.162,0.101,north,6.9,No
2018/08/03,05:30,0.328,0.206,0.338,0.322,0.293,0.163,0.100,north,5.1,No
2018/08/03,05:40,0.332,0.205,0.338,0.323,0.290,0.162,0.100,north,3.9,No
2018/08/03,05:50,0.330,0.204,0.334,0.324,0.289,0.163,0.100,north,4.1,No
2018/08/03,06:00,0.327,0.206,0.337,0.322,0.295,0.163,0.101,north,4.3,No
2018/08/03,06:10,0.332,0.207,0.339,0.320,0.293,0.163,0.100,north,3.6,No
2018/08/03,06:20,0.331,0.205,0.336,0.326,0.292,0.162,0.100,north,3.4,No
2018/08/03,06:30,0.328,0.205,0.335,0.324,0.291,0.162,0.100,north,2.1,No
2018/08/03,06:40,0.327,0.204,0.339,0.320,0.290,0.163,0.100,north,3.5,No
2018/08/03,06:50,0.332,0.204,0.337,0.319,0.294,0.163,0.100,north,4.2,No
2018/08/03,07:00,0.330,0.207,0.334,0.325,0.293,0.162,0.100,north,5.0,No
2018/08/03,07:10,0.328,0.207,0.333,0.323,0.292,0.164,0.100,north,3.5,No
2018/08/03,07:20,0.326,0.207,0.333,0.322,0.290,0.163,0.101,north,3.9,No
2018/08/03,07:30,0.325,0.206,0.333,0.322,0.289,0.163,0.100,north-northeast,5.4,No
2018/08/03,07:40,0.332,0.206,0.333,0.321,0.289,0.162,0.101,north,5.7,No
2018/08/03,07:50,0.333,0.206,0.335,0.319,0.292,0.163,0.099,north-northeast,5.5,No
2018/08/03,08:00,0.330,0.205,0.334,0.320,0.295,0.162,0.100,north-northeast,4.3,No
2018/08/03,08:10,0.328,0.205,0.335,0.320,0.293,0.162,0.100,north-northeast,5.5,No
2018/08/03,08:20,0.328,0.205,0.334,0.322,0.291,0.163,0.099,north-northeast,7.7,No
2018/08/03,08:30,0.328,0.204,0.333,0.322,0.289,0.162,0.100,north-northeast,6.5,No
2018/08/03,08:40,0.327,0.205,0.333,0.322,0.291,0.162,0.099,northeast,4.8,No
2018/08/03,08:50,0.327,0.207,0.332,0.321,0.291,0.163,0.099,northeast,6.8,No
2018/08/03,09:00,0.327,0.205,0.338,0.321,0.290,0.162,0.099,north-northeast,6.3,No
2018/08/03,09:10,0.327,0.206,0.339,0.321,0.291,0.162,0.100,north,6.5,No
2018/08/03,09:20,0.327,0.206,0.338,0.321,0.291,0.163,0.100,north-northeast,7.2,No
2018/08/03,09:30,0.328,0.206,0.335,0.324,0.291,0.163,0.100,north-northeast,6.1,No
2018/08/03,09:40,0.329,0.206,0.335,0.323,0.292,0.162,0.100,north-northeast,5.6,No
2018/08/03,09:50,0.329,0.205,0.334,0.323,0.291,0.164,0.099,northeast,5.3,No
2018/08/03,10:00,0.330,0.204,0.334,0.322,0.291,0.164,0.100,north-northeast,4.7,No
2018/08/03,10:10,0.329,0.205,0.333,0.322,0.293,0.162,0.100,north-northeast,5.1,No
2018/08/03,10:20,0.331,0.205,0.334,0.324,0.292,0.162,0.101,northeast,5.7,No
2018/08/03,10:30,0.328,0.204,0.335,0.324,0.291,0.163,0.100,north-northeast,5.0,No
2018/08/03,10:40,0.328,0.206,0.335,0.323,0.291,0.162,0.101,north-northeast,4.0,No
2018/08/03,10:50,0.328,0.206,0.337,0.324,0.291,0.162,0.100,northeast,5.3,No
2018/08/03,11:00,0.329,0.205,0.337,0.325,0.292,0.162,0.100,northeast,4.5,No
2018/08/03,11:10,0.328,0.206,0.337,0.324,0.291,0.163,0.100,northeast,4.0,No
2018/08/03,11:20,0.330,0.205,0.338,0.324,0.290,0.162,0.100,north-northeast,5.2,No
2018/08/03,11:30,0.329,0.206,0.339,0.325,0.291,0.163,0.100,east-northeast,1.8,No
2018/08/03,11:40,0.328,0.206,0.337,0.323,0.291,0.162,0.099,east-northeast,3.3,No
2018/08/03,11:50,0.329,0.206,0.337,0.324,0.291,0.163,0.100,east-northeast,2.2,No
2018/08/03,12:00,0.330,0.207,0.337,0.323,0.293,0.162,0.100,northeast,3.0,No
2018/08/03,12:10,0.330,0.206,0.337,0.323,0.292,0.162,0.100,northeast,2.2,No
2018/08/03,12:20,0.331,0.207,0.338,0.325,0.292,0.163,0.100,northeast,2.0,No
2018/08/03,12:30,0.331,0.207,0.339,0.324,0.293,0.164,0.101,east-northeast,2.3,No
2018/08/03,12:40,0.331,0.206,0.339,0.324,0.292,0.164,0.101,east-northeast,2.2,No
2018/08/03,12:50,0.331,0.207,0.337,0.325,0.294,0.164,0.101,northeast,3.1,No
2018/08/03,13:00,0.331,0.206,0.338,0.323,0.293,0.164,0.100,east-northeast,3.5,No
2018/08/03,13:10,0.330,0.206,0.337,0.323,0.292,0.163,0.100,east-northeast,2.4,No
2018/08/03,13:20,0.330,0.207,0.337,0.323,0.291,0.163,0.100,east,2.2,No
2018/08/03,13:30,0.329,0.207,0.337,0.323,0.292,0.163,0.100,east,2.0,No
2018/08/03,13:40,0.329,0.205,0.336,0.323,0.291,0.163,0.100,east,1.7,No
2018/08/03,13:50,0.332,0.205,0.337,0.322,0.291,0.163,0.100,east-southeast,2.1,No
2018/08/03,14:00,0.331,0.206,0.337,0.323,0.292,0.163,0.100,southeast,2.1,No
2018/08/03,14:10,0.332,0.207,0.337,0.323,0.293,0.163,0.100,southeast,2.0,No
2018/08/03,14:20,0.332,0.207,0.337,0.323,0.292,0.164,0.099,east-southeast,1.7,No
2018/08/03,14:30,0.332,0.207,0.336,0.323,0.293,0.164,0.100,southeast,1.8,No
2018/08/03,14:40,0.333,0.206,0.337,0.323,0.293,0.163,0.100,southeast,1.7,No
2018/08/03,14:50,0.333,0.206,0.337,0.323,0.292,0.162,0.100,east-southeast,1.7,No
2018/08/03,15:00,0.333,0.205,0.336,0.322,0.291,0.163,0.100,southeast,1.6,No
2018/08/03,15:10,0.332,0.206,0.336,0.321,0.292,0.163,0.100,south-southeast,1.8,No
2018/08/03,15:20,0.331,0.204,0.336,0.321,0.291,0.163,0.100,southeast,1.8,No
2018/08/03,15:30,0.331,0.206,0.335,0.321,0.292,0.163,0.100,east-southeast,1.9,No
2018/08/03,15:40,0.330,0.205,0.333,0.321,0.292,0.163,0.100,east-southeast,1.8,No
2018/08/03,15:50,0.329,0.204,0.336,0.323,0.291,0.163,0.100,east-southeast,1.7,No
2018/08/03,16:00,0.329,0.204,0.336,0.320,0.290,0.163,0.099,southeast,1.5,No
2018/08/03,16:10,0.329,0.205,0.335,0.323,0.292,0.163,0.099,southeast,1.1,No
2018/08/03,16:20,0.328,0.206,0.335,0.320,0.292,0.161,0.099,south-southeast,0.9,No
2018/08/03,16:30,0.329,0.205,0.335,0.321,0.291,0.163,0.099,southeast,1.3,No
2018/08/03,16:40,0.329,0.204,0.335,0.319,0.290,0.162,0.098,southeast,1.1,No
2018/08/03,16:50,0.329,0.206,0.334,0.320,0.291,0.163,0.099,-,CALM,No
2018/08/03,17:00,0.330,0.206,0.335,0.320,0.290,0.163,0.099,south-southeast,1.5,No
2018/08/03,17:10,0.329,0.204,0.334,0.322,0.290,0.164,0.100,south-southeast,1.8,No
2018/08/03,17:20,0.328,0.204,0.334,0.327,0.293,0.163,0.099,south-southeast,1.6,No
2018/08/03,17:30,0.328,0.204,0.334,0.327,0.290,0.162,0.099,south-southwest,1.7,No
2018/08/03,17:40,0.329,0.204,0.335,0.323,0.290,0.161,0.100,south-southwest,1.3,No
2018/08/03,17:50,0.329,0.203,0.340,0.322,0.292,0.162,0.100,south-southwest,1.1,No
2018/08/03,18:00,0.327,0.204,0.340,0.321,0.291,0.163,0.099,south-southwest,1.0,No
2018/08/03,18:10,0.328,0.207,0.335,0.321,0.291,0.164,0.099,southwest,1.6,No
2018/08/03,18:20,0.327,0.207,0.336,0.327,0.289,0.163,0.099,southwest,1.6,No
2018/08/03,18:30,0.330,0.207,0.334,0.325,0.289,0.160,0.100,southwest,2.3,No
2018/08/03,18:40,0.326,0.204,0.336,0.323,0.289,0.163,0.100,southwest,1.8,No
2018/08/03,18:50,0.328,0.205,0.339,0.322,0.290,0.164,0.099,west-southwest,1.5,No
2018/08/03,19:00,0.335,0.207,0.337,0.323,0.291,0.162,0.099,west-southwest,2.2,No
2018/08/03,19:10,0.332,0.207,0.334,0.326,0.295,0.163,0.099,west-southwest,1.7,No
2018/08/03,19:20,0.330,0.205,0.335,0.324,0.293,0.163,0.100,west-southwest,1.1,No
2018/08/03,19:30,0.329,0.207,0.340,0.322,0.291,0.164,0.100,west-northwest,0.7,No
2018/08/03,19:40,0.334,0.207,0.338,0.326,0.290,0.163,0.100,-,CALM,No
2018/08/03,19:50,0.332,0.206,0.334,0.326,0.294,0.164,0.100,east,0.9,No
2018/08/03,20:00,0.330,0.205,0.337,0.323,0.294,0.164,0.100,-,CALM,No
2018/08/03,20:10,0.328,0.206,0.340,0.321,0.293,0.163,0.100,-,CALM,No
2018/08/03,20:20,0.333,0.206,0.337,0.326,0.290,0.164,0.099,south,0.8,No
2018/08/03,20:30,0.331,0.207,0.334,0.324,0.294,0.164,0.100,southwest,1.6,No
2018/08/03,20:40,0.330,0.208,0.339,0.323,0.295,0.163,0.101,southwest,1.5,No
2018/08/03,20:50,0.332,0.207,0.341,0.324,0.292,0.164,0.100,southwest,2.1,No
2018/08/03,21:00,0.334,0.204,0.336,0.326,0.292,0.165,0.101,south-southwest,1.5,No
2018/08/03,21:10,0.330,0.208,0.337,0.323,0.295,0.164,0.101,south-southwest,2.7,No
2018/08/03,21:20,0.328,0.207,0.340,0.323,0.293,0.164,0.100,southwest,3.0,No
2018/08/03,21:30,0.333,0.206,0.336,0.326,0.289,0.165,0.100,south-southwest,1.6,No
2018/08/03,21:40,0.332,0.208,0.337,0.324,0.295,0.163,0.102,south-southwest,1.6,No
2018/08/03,21:50,0.329,0.207,0.339,0.323,0.293,0.164,0.100,south-southwest,1.7,No
2018/08/03,22:00,0.333,0.206,0.339,0.325,0.290,0.164,0.101,south-southwest,2.0,No
2018/08/03,22:10,0.331,0.208,0.337,0.323,0.292,0.163,0.101,south-southwest,1.4,No
2018/08/03,22:20,0.330,0.206,0.340,0.324,0.296,0.165,0.101,southwest,1.0,No
2018/08/03,22:30,0.333,0.208,0.337,0.327,0.293,0.164,0.101,south-southwest,2.1,No
2018/08/03,22:40,0.330,0.208,0.336,0.325,0.292,0.163,0.101,south-southwest,1.9,No
2018/08/03,22:50,0.329,0.206,0.341,0.322,0.295,0.165,0.100,south-southwest,2.1,No
2018/08/03,23:00,0.334,0.207,0.340,0.326,0.293,0.164,0.100,south-southwest,2.0,No
2018/08/03,23:10,0.331,0.207,0.338,0.326,0.290,0.164,0.101,south-southwest,2.0,No
2018/08/03,23:20,0.329,0.206,0.340,0.323,0.295,0.164,0.101,south-southwest,2.0,No
2018/08/03,23:30,0.333,0.208,0.338,0.326,0.293,0.164,0.100,south-southwest,1.7,No
2018/08/03,23:40,0.330,0.206,0.338,0.324,0.290,0.165,0.101,southwest,1.9,No
2018/08/03,23:50,0.330,0.207,0.341,0.323,0.296,0.164,0.100,west-northwest,0.6,No
